Location: Dehesa de la Cepeda
(40.6574°N, 4.3013°W)
Time: 08:52:55
(UTC+00:00)

Transit 2A Rocket - Pass Details

Date: 04 August 2021
Orbit: 586 x 917 km, 66.7° (Epoch: 24 September)

Event Time Altitude Azimuth Distance (km) Brightness Sun altitude
Rises 15:05:21 0° 261° (W) 2,884 8.7 47.9°
Reaches altitude 10° 15:08:36 10° 288° (WNW) 2,034 7.9 47.4°
Maximum altitude 15:11:02 14° 320° (NW) 1,823 7.3 46.9°
Drops below altitude 10° 15:13:34 10° 352° (N) 2,136 7.3 46.5°
Sets 15:17:09 0° 17° (NNE) 3,138 7.9 45.9°
